• In Netherlands
  • List of Countries
  • For 7 days
  • Water Temperature
  • Satellite Maps
  • Weather Map
  • Weather Widgets
  • user-avatar
    Login

    Hourly Weather Sankt Polten

    Today, 19 February, Sunday

    Time Temperature Precipitation Wind Pressure Humidity
    00:00 0°C° 0 mm 1 mps 742 mmHg 97%
    01:00 -1°C° 0 mm 1 mps 742 mmHg 97%
    02:00 -2°C° 0 mm 1 mps 742 mmHg 97%
    03:00 -2°C° 0 mm 1 mps 742 mmHg 97%
    04:00 -4°C° 0 mm 0 mps 741 mmHg 97%
    05:00 -2°C° 0 mm 1 mps 741 mmHg 96%
    06:00 -2°C° 0 mm 1 mps 741 mmHg 96%
    07:00 -1°C° 0 mm 1 mps 742 mmHg 96%
    08:00 +1°C° 0 mm 1 mps 742 mmHg 93%
    09:00 +3°C° 0 mm 1 mps 742 mmHg 91%
    10:00 +4°C° 0 mm 1 mps 742 mmHg 88%
    11:00 +5°C° 0 mm 1 mps 741 mmHg 87%
    12:00 +6°C° 0 mm 1 mps 741 mmHg 87%
    13:00 +6°C° 0 mm 1 mps 741 mmHg 86%
    14:00 +6°C° 0 mm 1 mps 740 mmHg 88%
    15:00 +6°C° 0 mm 1 mps 740 mmHg 91%
    16:00 +5°C° 0 mm 1 mps 740 mmHg 93%
    17:00 +4°C° 0 mm 1 mps 739 mmHg 94%
    18:00 +2°C° 0 mm 1 mps 739 mmHg 95%
    19:00 0°C° 0 mm 1 mps 739 mmHg 95%
    20:00 +1°C° 0 mm 1 mps 739 mmHg 95%
    21:00 -1°C° 0 mm 2 mps 739 mmHg 94%
    22:00 +1°C° 0 mm 2 mps 740 mmHg 94%
    23:00 +1°C° 0 mm 2 mps 740 mmHg 94%

    Tomorrow, 20 February, Monday

    Time Temperature Precipitation Wind Pressure Humidity
    00:00 +1°C° 0 mm 2 mps 740 mmHg 93%
    01:00 +1°C° 0 mm 2 mps 740 mmHg 93%
    02:00 +1°C° 0 mm 2 mps 740 mmHg 94%
    03:00 +1°C° 0 mm 2 mps 739 mmHg 94%
    04:00 +1°C° 0 mm 2 mps 739 mmHg 95%
    05:00 +1°C° 0 mm 2 mps 739 mmHg 95%
    06:00 +2°C° 0 mm 2 mps 739 mmHg 95%
    07:00 +1°C° 0 mm 3 mps 739 mmHg 95%
    08:00 +2°C° 0 mm 3 mps 740 mmHg 94%
    09:00 +3°C° 0 mm 3 mps 740 mmHg 92%
    10:00 +4°C° 0 mm 3 mps 740 mmHg 90%
    11:00 +4°C° 0 mm 3 mps 740 mmHg 89%
    12:00 +5°C° 0 mm 4 mps 739 mmHg 88%
    13:00 +5°C° 0 mm 4 mps 739 mmHg 87%
    14:00 +5°C° 0 mm 3 mps 739 mmHg 89%
    15:00 +5°C° 0 mm 3 mps 738 mmHg 91%
    16:00 +4°C° 0 mm 3 mps 738 mmHg 92%
    17:00 +3°C° 0 mm 3 mps 738 mmHg 93%
    18:00 +2°C° 0 mm 3 mps 738 mmHg 94%
    19:00 +1°C° 0 mm 3 mps 737 mmHg 95%
    20:00 +1°C° 0 mm 3 mps 737 mmHg 94%
    21:00 +1°C° 0 mm 3 mps 737 mmHg 93%
    22:00 +1°C° 0 mm 3 mps 737 mmHg 93%
    23:00 +1°C° 0 mm 4 mps 736 mmHg 92%

    Day after tomorrow, 21 February, Tuesday

    Time Temperature Precipitation Wind Pressure Humidity
    00:00 +1°C° 0 mm 4 mps 736 mmHg 91%
    01:00 +1°C° 0 mm 4 mps 736 mmHg 90%
    02:00 +1°C° 0.4 mm 4 mps 735 mmHg 90%
    03:00 +2°C° 0.4 mm 5 mps 735 mmHg 91%
    04:00 +2°C° 0.4 mm 5 mps 734 mmHg 91%
    05:00 +2°C° 0.2 mm 5 mps 734 mmHg 91%
    06:00 +2°C° 0.2 mm 5 mps 734 mmHg 92%
    07:00 +3°C° 0.2 mm 5 mps 733 mmHg 93%
    08:00 +3°C° 0.2 mm 5 mps 733 mmHg 93%
    09:00 +5°C° 0.2 mm 5 mps 734 mmHg 93%
    10:00 +5°C° 0.2 mm 5 mps 734 mmHg 93%
    11:00 +6°C° 0.5 mm 5 mps 733 mmHg 93%
    12:00 +6°C° 0.5 mm 5 mps 733 mmHg 94%
    13:00 +6°C° 0.5 mm 5 mps 733 mmHg 94%
    14:00 +6°C° 0.3 mm 5 mps 733 mmHg 95%
    15:00 +6°C° 0.3 mm 5 mps 733 mmHg 95%
    16:00 +6°C° 0.3 mm 4 mps 733 mmHg 95%
    17:00 +6°C° 0.2 mm 4 mps 734 mmHg 96%
    18:00 +6°C° 0.2 mm 4 mps 734 mmHg 96%
    19:00 +5°C° 0.2 mm 4 mps 734 mmHg 96%
    20:00 +5°C° 0.5 mm 3 mps 735 mmHg 97%
    21:00 +5°C° 0.5 mm 3 mps 735 mmHg 97%
    22:00 +5°C° 0.5 mm 3 mps 735 mmHg 97%
    23:00 +5°C° 0.8 mm 3 mps 735 mmHg 97%

    22 February, Wednesday

    Time Temperature Precipitation Wind Pressure Humidity
    00:00 +5°C° 0.8 mm 3 mps 735 mmHg 97%
    01:00 +6°C° 0.8 mm 2 mps 734 mmHg 97%
    02:00 +5°C° 0.4 mm 3 mps 734 mmHg 96%
    03:00 +5°C° 0.4 mm 3 mps 734 mmHg 96%
    04:00 +7°C° 0.4 mm 3 mps 733 mmHg 96%
    05:00 +7°C° 0.2 mm 3 mps 733 mmHg 96%
    06:00 +6°C° 0.2 mm 4 mps 733 mmHg 96%
    07:00 +6°C° 0.2 mm 4 mps 733 mmHg 96%
    08:00 +6°C° 0.1 mm 4 mps 733 mmHg 94%
    09:00 +7°C° 0.1 mm 4 mps 732 mmHg 93%
    10:00 +8°C° 0.1 mm 4 mps 732 mmHg 92%
    11:00 +8°C° 0 mm 5 mps 732 mmHg 90%
    12:00 +9°C° 0 mm 5 mps 732 mmHg 87%
    13:00 +10°C° 0 mm 6 mps 731 mmHg 85%
    14:00 +10°C° 0 mm 5 mps 731 mmHg 86%
    15:00 +10°C° 0 mm 4 mps 731 mmHg 87%
    16:00 +10°C° 0 mm 4 mps 730 mmHg 88%
    17:00 +8°C° 0.1 mm 4 mps 730 mmHg 90%
    18:00 +7°C° 0.1 mm 4 mps 730 mmHg 91%
    19:00 +7°C° 0.1 mm 4 mps 730 mmHg 93%
    20:00 +6°C° 0.1 mm 4 mps 730 mmHg 92%
    21:00 +6°C° 0.1 mm 5 mps 730 mmHg 92%
    22:00 +6°C° 0.1 mm 5 mps 730 mmHg 91%
    23:00 +6°C° 0.1 mm 5 mps 730 mmHg 91%

    23 February, Thursday

    Time Temperature Precipitation Wind Pressure Humidity
    00:00 +6°C° 0.1 mm 5 mps 730 mmHg 91%
    01:00 +6°C° 0.1 mm 5 mps 730 mmHg 90%
    02:00 +5°C° 0.2 mm 6 mps 730 mmHg 91%
    03:00 +5°C° 0.2 mm 6 mps 730 mmHg 91%
    04:00 +5°C° 0.2 mm 6 mps 731 mmHg 91%
    05:00 +6°C° 0.3 mm 5 mps 731 mmHg 92%
    06:00 +6°C° 0.3 mm 5 mps 731 mmHg 92%
    07:00 +6°C° 0.3 mm 5 mps 731 mmHg 92%
    08:00 +6°C° 0.1 mm 5 mps 732 mmHg 91%
    09:00 +7°C° 0.1 mm 5 mps 732 mmHg 90%
    10:00 +7°C° 0.1 mm 5 mps 732 mmHg 89%
    11:00 +7°C° 0.1 mm 5 mps 731 mmHg 89%
    12:00 +8°C° 0.1 mm 5 mps 731 mmHg 88%
    13:00 +8°C° 0.1 mm 4 mps 731 mmHg 88%
    14:00 +8°C° 0 mm 4 mps 730 mmHg 88%
    15:00 +10°C° 0 mm 4 mps 729 mmHg 87%
    16:00 +10°C° 0 mm 3 mps 729 mmHg 87%
    17:00 +9°C° 0 mm 3 mps 728 mmHg 88%
    18:00 +8°C° 0 mm 3 mps 728 mmHg 90%
    19:00 +8°C° 0 mm 3 mps 728 mmHg 91%
    20:00 +6°C° 0 mm 4 mps 728 mmHg 91%
    21:00 +6°C° 0 mm 4 mps 727 mmHg 90%
    22:00 +6°C° 0 mm 4 mps 727 mmHg 90%
    23:00 +6°C° 0.1 mm 4 mps 726 mmHg 90%

    24 February, Friday

    Time Temperature Precipitation Wind Pressure Humidity
    00:00 +6°C° 0.1 mm 4 mps 725 mmHg 90%
    01:00 +6°C° 0.1 mm 4 mps 725 mmHg 89%
    02:00 +6°C° 0.3 mm 4 mps 724 mmHg 89%
    03:00 +6°C° 0.3 mm 5 mps 724 mmHg 89%
    04:00 +6°C° 0.3 mm 5 mps 724 mmHg 89%
    05:00 +5°C° 0.8 mm 5 mps 724 mmHg 89%
    06:00 +4°C° 0.8 mm 6 mps 725 mmHg 89%
    07:00 +3°C° 0.8 mm 6 mps 725 mmHg 89%
    08:00 +3°C° 0.5 mm 6 mps 726 mmHg 87%
    09:00 +2°C° 0.5 mm 7 mps 727 mmHg 86%
    10:00 +2°C° 0.5 mm 7 mps 728 mmHg 84%
    11:00 +2°C° 0.2 mm 7 mps 729 mmHg 82%
    12:00 +1°C° 0.2 mm 8 mps 730 mmHg 79%
    13:00 +2°C° 0.2 mm 8 mps 730 mmHg 77%
    14:00 +2°C° 0.1 mm 7 mps 731 mmHg 77%
    15:00 +2°C° 0.1 mm 6 mps 731 mmHg 78%
    16:00 +2°C° 0.1 mm 6 mps 732 mmHg 78%
    17:00 +1°C° 0 mm 5 mps 733 mmHg 81%
    18:00 0°C° 0 mm 4 mps 734 mmHg 85%
    19:00 0°C° 0 mm 3 mps 736 mmHg 88%
    20:00 0°C° 0 mm 3 mps 736 mmHg 89%
    21:00 0°C° 0 mm 3 mps 737 mmHg 90%
    22:00 0°C° 0 mm 3 mps 738 mmHg 91%
    23:00 0°C° 0.1 mm 3 mps 738 mmHg 91%
    Show more